Location: Smithers
(54.7670°N, 127.1670°W)
Time: 19:53:21
(UTC-08:00)

Daily predictions for brighter satellites

Satellite Brightness Start Highest point End
(mag) Time Altitude Azimuth Time Altitude Azimuth Time Altitude Azimuth
SL-16 R/B 3.4 16:47:42 10° N 16:53:43 50° WNW 16:59:42 10° SW
Cosmos 1151 Rocket 4.2 16:50:54 10° SW 16:55:04 45° WNW 16:59:15 10° N
Cosmos 1484 Rocket 3.5 16:52:45 10° SE 16:56:17 34° ENE 16:59:53 10° N
Cosmos 1954 Rocket 4.1 16:51:24 10° SSW 16:56:40 85° WNW 17:01:56 10° NNE
Cosmos 1802 Rocket 4.1 16:50:56 10° S 16:56:57 61° E 17:03:00 10° NNE
COSMOS 2441 4.4 16:52:54 10° SSE 16:57:45 67° ENE 17:02:39 10° N
CZ-4C R/B 3.0 16:52:38 10° NW 16:58:55 50° NNE 17:06:09 10° E
Cosmos 1862 3.4 16:57:27 10° NNW 17:01:30 84° W 17:05:32 10° S
ATLAS CENTAUR R/B 2.8 16:59:37 10° WNW 17:02:31 21° NNW 17:05:28 10° NE
Cosmos 1763 Rocket 3.5 16:59:40 10° NNW 17:04:56 68° ENE 17:10:06 10° SE
Cosmos 2297 Rocket 4.0 17:01:38 10° WNW 17:05:39 19° NNW 17:09:39 10° NNE
IRAS Rocket 4.2 17:01:26 10° SSE 17:06:58 77° ENE 17:12:30 10° NNW
Cosmos 407 Rocket 4.4 17:03:47 10° SW 17:08:44 46° NW 17:13:42 10° NNE
Cosmos 1825 4.1 17:05:59 10° NNW 17:09:27 34° W 17:12:54 10° SSW
Cosmos 2082 Rocket 2.5 17:04:26 10° NNW 17:09:57 46° NE 17:15:25 10° ESE
COSMO-SKYMED 1 4.5 17:09:43 10° ENE 17:11:12 11° E 17:12:40 10° ESE
Meteor 2-10 Rocket 3.7 17:06:08 10° S 17:11:20 61° E 17:16:50 10° NNE
Cosmos 1340 3.1 17:09:03 10° SSE 17:12:36 40° E 17:16:11 10° NNE
CZ-2C R/B 2.8 17:08:38 10° S 17:13:41 74° WSW 17:18:54 10° NNW
SJ-12 3.9 17:09:55 10° SSE 17:14:05 84° ENE 17:18:16 10° NNW
SL-27 R/B 2.7 17:12:34 10° NNW 17:15:45 39° ENE 17:18:55 10° SE
CSL-04 Rocket 3.6 17:11:08 10° SSE 17:16:26 73° ENE 17:21:49 10° NNW
Cosmos 1455 4.2 17:13:45 10° SW 17:17:02 28° WNW 17:20:20 10° N
Cosmos 1725 Rocket 4.2 17:11:10 10° SSE 17:17:15 54° E 17:23:19 10° NNE
YAOGAN 1 3.1 17:15:17 10° SE 17:19:14 35° ENE 17:23:12 10° N
COSMOS 2487 4.3 17:17:16 10° N 17:19:19 14° NE 17:20:33 13° ENE
Cosmos 1814 Rocket 4.1 17:14:35 10° NNW 17:19:59 90° WSW 17:25:22 10° SSE
ERS-2 2.9 17:21:39 10° SE 17:24:53 30° ENE 17:28:09 10° N
ATLAS 3B R/B 3.2 17:19:52 10° WSW 17:26:56 57° NNW 17:33:23 11° NE
Cosmos 44 Rocket 3.4 17:22:28 10° NW 17:27:13 55° NE 17:32:03 10° ESE
USA 161 0.3 17:26:15 11° NNE 17:28:03 84° ESE 17:30:02 10° SSW
Cosmos 1707 Rocket 3.8 17:23:39 10° SSW 17:28:06 74° WNW 17:32:34 10° N
Tsikada Rocket 4.0 17:22:45 10° N 17:28:58 88° E 17:35:09 10° S
Cosmos 540 Rocket 3.6 17:26:04 10° NNW 17:31:09 51° NE 17:36:11 10° SE
Meteor 2-12 Rocket 4.5 17:25:26 10° S 17:31:23 58° E 17:37:19 10° NNE
Cosmos 2346 Rocket 4.4 17:26:01 10° N 17:32:10 72° ENE 17:38:20 10° SSE
USA 238 DEB 4.1 17:25:31 10° WSW 17:32:23 58° NNW 17:38:49 12° NE
USA 238 4.1 17:25:37 10° WSW 17:32:29 58° NNW 17:38:55 12° NE
Cosmos 304 Rocket 4.0 17:29:30 10° NNW 17:34:21 78° WSW 17:39:09 10° SSE
Cosmos 2061 Rocket 4.2 17:28:17 10° SSW 17:34:37 79° WNW 17:41:04 10° N
Lacrosse 5 1.9 17:29:42 10° WSW 17:34:47 88° SSE 17:38:55 16° ENE
Cosmos 1346 2.4 17:32:55 10° SSW 17:35:10 74° WNW 17:37:27 10° N
Cosmos 292 Rocket 4.2 17:32:55 10° NNW 17:37:23 38° NE 17:41:50 10° ESE
Cosmos 2016 Rocket 4.1 17:31:18 10° S 17:37:38 88° WNW 17:43:55 10° N
SL-23 DEB 4.4 17:34:53 10° WSW 17:38:19 56° S 17:43:15 11° ESE
DNEPR-1 R/B 3.4 17:34:51 10° SW 17:39:08 86° SE 17:42:36 15° NE
Cosmos 841 Rocket 3.6 17:35:17 10° NNW 17:40:37 88° SW 17:45:54 10° SSE
Ariane Rocket 3.1 17:36:30 10° SSE 17:41:37 84° WSW 17:46:44 10° NNW
Cosmos 1633 3.0 17:39:24 10° N 17:42:53 39° ENE 17:46:22 10° SE
Cosmos 1844 Rocket 2.7 17:38:01 10° SSW 17:43:40 77° ESE 17:49:12 10° NE
Cosmos 1850 Rocket 4.2 17:38:49 10° SSW 17:44:00 75° WNW 17:49:14 10° NNE
Okean 2 Rocket 3.8 17:42:44 10° N 17:46:51 33° ENE 17:50:57 10° SE
Cosmos 1437 2.7 17:45:07 10° S 17:48:14 59° E 17:50:59 13° NNE
Cosmos 44 3.1 17:50:43 10° NW 17:55:18 82° NE 18:00:07 10° SE
Cosmos 1486 Rocket 4.5 17:53:15 10° S 17:58:06 40° ESE 18:01:36 18° NE
Cosmos 1908 Rocket 3.4 17:53:44 10° N 17:58:08 85° E 18:02:28 10° SSE
Cosmos 1733 Rocket 4.2 17:54:56 10° NNW 17:59:12 47° W 18:03:28 10° SSW
SKYMED 2 4.4 17:58:00 21° NE 17:59:50 28° E 18:03:36 10° SSE
Meteor 1-14 Rocket 4.4 17:55:00 10° NNW 18:00:44 79° W 18:06:20 10° S
FENGYUN 3A 3.8 17:57:07 10° SE 18:02:19 49° ENE 18:07:31 10° N
Cosmos 1833 Rocket 2.7 18:00:12 10° NNW 18:05:52 89° WSW 18:11:31 10° SSE
NOSS 3-2 (C) 3.9 18:02:25 10° WSW 18:08:40 65° NNW 18:13:56 19° NE
Cosmos 1464 Rocket 4.3 18:06:16 10° SSE 18:11:56 41° E 18:17:40 10° NNE
Meteor 1-28 Rocket 3.0 18:12:15 16° NNE 18:15:13 69° ESE 18:18:55 10° S
ALOS 2.3 18:10:40 10° SSE 18:15:15 57° ENE 18:19:51 10° N
Sich 1 Rocket 3.7 18:11:08 10° NNW 18:15:35 80° W 18:20:01 10° S
Cosmos 1844 3.8 18:10:48 10° SW 18:16:37 85° WNW 18:21:27 16° NNE
Cosmos 2242 Rocket 4.3 18:12:27 10° SSW 18:16:56 57° WNW 18:21:25 10° N
NOSS 3-2 (A) 4.1 18:11:13 10° WSW 18:17:27 55° NNW 18:22:19 20° NE
Cosmos 1862 Rocket 3.9 18:13:41 10° SSW 18:18:07 68° WNW 18:22:37 10° N
Meteor 1-11 Rocket 3.9 18:12:42 10° N 18:18:31 52° ENE 18:24:09 10° SE
SPOT 3 Rocket 3.5 18:13:47 10° SSE 18:18:59 73° ENE 18:24:12 10° NNW
Cosmos 2227 Rocket 4.1 18:16:58 10° NW 18:20:17 16° N 18:22:33 13° NNE
Cosmos 2263 Rocket 3.8 18:16:07 10° W 18:20:56 28° NW 18:25:35 11° NNE
Cosmos 2278 Rocket 2.2 18:15:35 10° SSW 18:21:10 62° ESE 18:24:44 23° NE
SMAP 4.4 18:19:12 10° S 18:23:37 43° W 18:28:05 10° NNW
CZ-4 R/B 2.4 18:20:06 10° S 18:23:50 46° W 18:27:33 10° NNW
Meteor 1-26 Rocket 4.2 18:19:14 10° SSW 18:24:48 81° WNW 18:30:22 10° NNE
Resurs 01 Rocket 3.7 18:27:45 13° NNE 18:27:45 13° NNE 18:28:30 10° N
Cosmos 2233 Rocket 4.0 18:19:20 10° SSW 18:25:36 85° W 18:31:51 10° N
Landsat 4 3.6 18:25:15 31° NNE 18:26:53 64° ESE 18:30:39 10° S
Cosmos 1606 2.6 18:24:21 10° S 18:28:04 57° E 18:28:56 44° NE
Cosmos 1538 Rocket 4.4 18:23:37 10° NNW 18:28:38 41° NE 18:30:01 34° E
EO 1 Del DPAF 3.5 18:29:55 45° ESE 18:29:55 45° ESE 18:33:29 10° S
Intercosmos 25 4.1 18:23:44 10° S 18:30:39 65° E 18:34:02 17° NNE
CENTAUR R/B 2.7 18:24:41 10° SW 18:31:06 85° NW 18:35:46 24° NE
Okean 1-7 3.1 18:28:06 10° S 18:32:23 54° E 18:34:08 32° NE
Meteor 2-20 Rocket 4.5 18:26:27 10° N 18:32:26 53° ENE 18:38:23 10° SSE
COSMOS 2455 2.8 18:26:46 10° SW 18:32:48 88° SE 18:36:28 25° NE
BREEZE-M DEB (TANK) 4.1 18:33:43 10° SW 18:36:00 30° SSE 18:36:00 30° SSE
Timation 1 Rocket 4.3 18:30:31 10° SSW 18:36:32 87° ESE 18:40:25 24° NE
Cosmos 405 2.8 18:36:00 10° NNW 18:39:38 77° ENE 18:40:14 58° SE
NOAA 12 4.0 18:34:57 10° SSE 18:40:17 90° NE 18:45:38 10° NNW
ATLAS CENTAUR R/B 3.0 18:39:52 10° NW 18:42:20 19° N 18:42:20 19° N
Cosmos 1782 Rocket 4.0 18:38:22 10° NNW 18:42:40 61° W 18:46:58 10° S
Cosmos 1602 3.6 18:42:40 10° NNW 18:46:32 89° W 18:50:23 10° S
USA 116 4.2 18:42:31 10° NNE 18:47:16 72° WNW 18:51:27 10° SSW
CZ-4C R/B 2.9 18:41:14 10° NW 18:48:03 80° SW 18:54:34 16° SE
COSMO-SKYMED 1 2.4 18:46:38 39° NNE 18:48:10 74° ESE 18:52:30 10° S
Cosmos 2297 Rocket 4.0 18:48:35 10° NNW 18:51:59 16° N 18:53:02 15° NNE
H-2A R/B 4.3 18:55:15 25° N 18:55:15 25° N 18:56:57 10° N
Cosmos 2082 Rocket 3.2 18:48:41 10° NW 18:54:07 47° WSW 18:59:31 10° S
Cosmos 1513 Rocket 4.4 18:48:06 10° S 18:54:20 69° E 19:00:30 10° NNE
Cosmos 1782 2.8 18:50:21 10° SSW 18:54:23 80° WNW 18:55:40 42° N
COSMOS 2487 3.0 18:51:42 10° NNW 18:54:24 50° NNW 18:54:24 50° NNW
YAOGAN 1 4.2 18:51:22 10° SSW 18:55:21 35° W 18:59:23 10° NNW
Envisat 4.2 18:59:58 27° NNE 18:59:58 27° NNE 19:02:42 10° N
ERS-2 4.0 18:55:12 10° SSW 18:58:32 32° W 19:01:54 10° NNW
Meteor 2-6 Rocket 4.0 18:54:24 10° S 18:59:53 77° E 19:04:33 15° NNE
Cosmos 1891 Rocket 4.3 19:01:26 10° S 19:07:34 81° E 19:13:39 10° NNE
Cosmos 2151 Rocket 3.5 19:07:24 10° NNW 19:11:51 84° WSW 19:11:55 84° SW
BREEZE-M DEB (TANK) 3.7 19:10:31 10° WSW 19:12:25 28° SSW 19:12:25 28° SSW
Cosmos 773 Rocket 4.0 19:07:52 10° NNW 19:12:41 63° NE 19:12:41 63° NE
Cosmos 2221 Rocket 3.7 19:09:01 10° SSW 19:13:24 72° WNW 19:14:24 52° N
Nadezhda 4 Rocket 3.9 19:10:41 10° NNW 19:16:52 83° W 19:22:58 10° S
Lacrosse 5 1.9 19:12:57 10° W 19:18:01 68° N 19:18:06 68° N
Cosmos 1503 Rocket 3.8 19:13:24 10° SSW 19:18:41 86° ESE 19:19:06 76° NE
FengYun 1-2 T 4.2 19:13:16 10° SSE 19:18:49 81° WSW 19:24:27 10° NNW
ATLAS 3B R/B 3.4 19:12:19 10° WNW 19:18:53 40° N 19:20:38 34° NNE
DMSP B5D1-3 4.4 19:23:56 73° NNE 19:24:28 90° E 19:29:38 10° SSW
USA 238 DEB 4.4 19:17:58 10° WNW 19:24:34 42° N 19:26:15 37° NNE
USA 238 4.4 19:18:03 10° WNW 19:24:40 42° N 19:26:21 37° NNE
Timation 2 Rocket 4.5 19:18:40 10° NW 19:25:26 64° WSW 19:30:08 20° SSE
Meteor 1-5 Rocket 4.1 19:22:07 10° NNW 19:27:33 81° WSW 19:28:51 53° S
Cosmos 1844 Rocket 4.1 19:23:07 10° W 19:28:08 32° NW 19:30:52 21° N
Cosmos 2034 Rocket 4.0 19:22:37 10° SSW 19:29:01 85° W 19:35:25 10° N
USA 234 3.6 19:30:18 45° SSE 19:30:18 45° SSE 19:36:08 10° SSW
Meteor 1-27 Rocket 3.7 19:24:09 10° S 19:30:05 85° ESE 19:31:41 52° NNE
Cosmos 1092 Rocket 3.9 19:27:51 10° NNW 19:34:02 86° W 19:36:56 34° S
Cosmos 2285 Rocket 4.0 19:33:26 10° NNW 19:39:15 67° NNE 19:39:15 67° NNE
Cosmos 1627 Rocket 4.4 19:33:30 10° N 19:39:42 76° NE 19:39:42 76° NE
ALOS 4.5 19:49:13 10° SW 19:53:02 24° W 19:56:53 10° NW
NOSS 3-2 (C) 4.4 19:54:28 10° WNW 20:00:44 42° N 20:01:23 41° N
Cosmos 2297 4.1 19:55:04 10° SW 20:00:11 63° W 20:00:11 63° W
Resurs 01 Rocket 4.2 20:05:20 13° NNW 20:05:20 13° NNW 20:05:50 10° NNW
Cosmos 2278 Rocket 3.4 20:00:21 10° WSW 20:05:37 37° NW 20:06:36 35° NNW
Cosmos 2227 Rocket 4.1 20:01:59 10° NNW 20:04:22 19° N 20:04:22 19° N
Cosmos 2263 Rocket 4.3 20:03:29 10° NW 20:06:49 16° N 20:07:16 16° N
NOSS 3-2 (A) 4.5 20:03:18 10° WNW 20:09:38 42° N 20:09:42 42° N
Cosmos 2026 Rocket 4.4 20:09:38 10° NNW 20:14:50 59° NW 20:14:50 59° NW
COSMOS 2455 4.0 20:13:54 10° W 20:19:25 36° NNW 20:19:38 36° NNW
CENTAUR R/B 3.4 20:16:08 10° W 20:22:38 46° NNW 20:22:57 46° N
CZ-4C R/B 4.5 20:30:16 10° WNW 20:36:04 28° WSW 20:39:51 19° SSW
Cosmos 2297 Rocket 4.4 20:33:12 10° NNW 20:34:50 17° NNW 20:34:50 17° NNW
Lacrosse 5 4.4 20:56:07 10° WNW 20:57:18 17° WNW 20:57:18 17° WNW
ATLAS 3B R/B 4.1 21:04:07 10° NW 21:07:52 32° NW 21:07:52 32° NW
